Location: Brede
(50.9167°N, 0.6000°E)
Time: 17:01:05
(UTC+00:00)

Cosmos 1777 Rocket - Pass Details

Date: 08 August 2020
Orbit: 758 x 776 km, 74.0° (Epoch: 22 September)

Event Time Altitude Azimuth Distance (km) Brightness Sun altitude
Exits shadow 01:52:24 35° 225° (SW) 1,236 4.6 -18.9°
Maximum altitude 01:54:36 67° 297° (WNW) 839 4.1 -18.7°
Drops below altitude 10° 01:59:54 10° 21° (NNE) 2,336 7.7 -18.3°
Sets 02:02:19 0° 24° (NNE) 3,268 8.9 -18.2°
